LFBOLFBZ

Guest
Details From LFBO - Toulouse Blagnac
To LFBZ - Biarritz Bayonne Anglet
Flight Number -
Tags Routegen
Created
Modified
Stats Distance 126 nm / 233 km
Max Altitude 0 ft / 0 m
Waypoints 2
Social Downloads 1
Likes 0
Share VATSIM

Download

Looking for another format? Having issues loading an existing format? Contact us
Advertisement - Login to hide

Notes

None

Route

LFBO LFBZ

ID Type Via Altitude Latitude Longitude Leg Dist Tot Dist Heading (true) Name
O LFBO APT - 0 ft / 0 m 43.64411˚ 1.34593˚ - 0 nm - -
O LFBZ APT - 0 ft / 0 m 43.46824˚ -1.53723˚ 125 nm 125 nm 266° / 264° -

Altitude Profile

Advertisement - Login to hide

LFBO

Details ICAO LFBO (TLS)
Name Toulouse Blagnac
Region France
Timezone Europe/Paris (UTC+1.0)
Stats Elevation 499 ft / 152 m (AMSL)
Location 43.629026° 1.363969°
Runways 2
Magnetic Variation 0.574° E

METAR

LFBO 141030Z AUTO 24009KT 9999 FEW024 12/08 Q1015 NOSIG

Decode

TAF

TAF LFBO 140500Z 1406/1512 25007KT 9999 BKN011 TEMPO 1406/1409 3000 -RADZ OVC006 BECMG 1409/1411 BKN020 PROB40 TEMPO 1414/1418 CAVOK TEMPO 1418/1503 27015G25KT -SHRA BKN010 BKN020TCU BECMG 1503/1505 4000 RA BKN008 TEMPO 1505/1510 27015G25KT 2000 +RA BKN004 SCT013CB

Decode

Departure Runways

ID Width Length Bearing (true) Bearing (mag) Surface Threshold Offset Overrun Length
14L 148 ft / 45 m 9,923 ft / 3,025 m 143.00° 142.43° Asphalt 0 ft / 0 m 0 ft / 0 m
14R 148 ft / 45 m 11,484 ft / 3,500 m 142.99° 142.42° Asphalt 0 ft / 0 m 295 ft / 90 m
32L 148 ft / 45 m 11,484 ft / 3,500 m 323.01° 322.44° Asphalt 0 ft / 0 m 197 ft / 60 m
32R 148 ft / 45 m 9,923 ft / 3,025 m 323.02° 322.45° Asphalt 0 ft / 0 m 0 ft / 0 m

LFBZ

Details ICAO LFBZ (BIQ)
Name Biarritz-Anglet-Bayonne
Region France
Timezone Europe/Paris (UTC+1.0)
Stats Elevation 245 ft / 75 m (AMSL)
Location 43.468427° -1.523322°
Runways 1
Magnetic Variation 0.226° W

METAR

LFBZ 141030Z AUTO 24007KT 200V280 9999 FEW012 OVC024 13/10 Q1016 NOSIG

Decode

TAF

TAF TAF LFBZ 140500Z 1406/1506 23010KT 9999 BKN025 TEMPO 1406/1408 23015G25KT 3000 -RA BKN006 PROB40 TEMPO 1415/1506 26015G25KT 4000 -SHRA PROB40 TEMPO 1503/1506 27020G40KT 3000 +SHRA BKN015TCU

Decode

Destination Runways

ID Width Length Bearing (true) Bearing (mag) Surface Threshold Offset Overrun Length
09 148 ft / 45 m 7,388 ft / 2,252 m 89.12° 89.35° Asphalt 673 ft / 205 m 0 ft / 0 m
27 148 ft / 45 m 7,388 ft / 2,252 m 269.14° 269.37° Asphalt 0 ft / 0 m 0 ft / 0 m

Approach Navaids

Runway Type Ident Frequency Range Bearing (true) Bearing (mag) Slope Elevation
09 Localiser BZ 111.34 MHz 18 nm / 33 km 89.35° 89.58° - 243 ft / 74 m (AMSL)
09 Glidescope BZ 111.34 MHz 10 nm / 19 km 89.13° 89.36° 3.00° 243 ft / 74 m (AMSL)
27 Localiser BZ 111.35 MHz 18 nm / 33 km 269.04° 269.27° - 234 ft / 71 m (AMSL)
27 Glidescope BZ 111.35 MHz 10 nm / 19 km 269.13° 269.36° 3.00° 234 ft / 71 m (AMSL)
27 DME BZ 111.35 MHz 18 nm / 33 km - - - 223 ft / 68 m (AMSL)

Popular Alternatives